Time,TemperatureF,DewpointF,PressureIn,WindDirection,WindDirectionDegrees,WindSpeedMPH,WindSpeedGustMPH,Humidity,HourlyPrecipIn,Conditions,Clouds,dailyrainin,SoftwareType,DateUTC
2013-10-14 00:01:00,69.6,68.1,30.07,NE,48,14.0,16.0,95,0.00,,---,0.00,VWS V14.01,2013-10-14 04:01:00,
2013-10-14 00:02:00,69.6,68.1,30.07,NNE,31,15.0,16.0,95,0.00,,---,0.00,VWS V14.01,2013-10-14 04:02:00,
2013-10-14 00:07:00,69.7,68.2,30.07,NE,40,9.0,19.0,95,0.00,,---,0.00,VWS V14.01,2013-10-14 04:07:00,
2013-10-14 00:12:00,69.7,68.2,30.07,NE,50,12.0,19.0,95,0.00,,---,0.00,VWS V14.01,2013-10-14 04:12:00,
2013-10-14 00:17:00,69.8,68.0,30.07,NE,40,14.0,19.0,94,0.00,,---,0.00,VWS V14.01,2013-10-14 04:17:00,
2013-10-14 00:22:00,69.8,68.0,30.07,NE,46,10.0,19.0,94,0.00,,---,0.00,VWS V14.01,2013-10-14 04:22:00,
2013-10-14 00:27:00,69.8,68.0,30.07,NE,43,14.0,14.0,94,0.00,,---,0.00,VWS V14.01,2013-10-14 04:27:00,
2013-10-14 00:32:00,69.8,68.0,30.07,ENE,67,14.0,17.0,94,0.00,,---,0.00,VWS V14.01,2013-10-14 04:32:00,
2013-10-14 00:37:00,69.9,68.1,30.07,NE,46,13.0,17.0,94,0.00,,---,0.00,VWS V14.01,2013-10-14 04:37:00,
2013-10-14 00:42:00,70.0,68.2,30.07,ENE,69,14.0,17.0,94,0.00,,---,0.00,VWS V14.01,2013-10-14 04:42:00,
2013-10-14 00:47:00,70.0,68.2,30.07,NE,41,13.0,19.0,94,0.00,,---,0.00,VWS V14.01,2013-10-14 04:47:00,
2013-10-14 00:53:00,70.1,68.3,30.07,NE,49,16.0,19.0,94,0.00,,---,0.00,VWS V14.01,2013-10-14 04:53:00,
2013-10-14 00:58:00,70.1,68.3,30.07,NE,44,15.0,16.0,94,0.00,,---,0.00,VWS V14.01,2013-10-14 04:58:00,
2013-10-14 01:03:00,70.1,68.3,30.07,NE,51,12.0,17.0,94,0.00,,---,0.00,VWS V14.01,2013-10-14 05:03:00,
2013-10-14 01:08:00,70.2,68.4,30.07,NE,50,10.0,18.0,94,0.00,,---,0.00,VWS V14.01,2013-10-14 05:08:00,
2013-10-14 01:13:00,70.2,68.4,30.07,NE,50,13.0,18.0,94,0.00,,---,0.00,VWS V14.01,2013-10-14 05:13:00,
2013-10-14 01:18:00,70.2,68.1,30.07,NE,50,12.0,18.0,93,0.00,,---,0.00,VWS V14.01,2013-10-14 05:18:00,
2013-10-14 01:23:00,70.2,68.4,30.07,NE,55,17.0,19.0,94,0.00,,---,0.00,VWS V14.01,2013-10-14 05:23:00,
2013-10-14 01:28:00,70.2,68.1,30.07,NE,51,12.0,14.0,93,0.00,,---,0.00,VWS V14.01,2013-10-14 05:28:00,
2013-10-14 01:33:00,70.2,68.1,30.07,NE,42,13.0,18.0,93,0.00,,---,0.00,VWS V14.01,2013-10-14 05:33:00,
2013-10-14 01:38:00,70.2,68.4,30.06,NE,38,15.0,18.0,94,0.00,,---,0.00,VWS V14.01,2013-10-14 05:38:00,
2013-10-14 01:43:00,70.3,68.2,30.06,NE,50,13.0,18.0,93,0.00,,---,0.00,VWS V14.01,2013-10-14 05:43:00,
2013-10-14 01:48:00,70.4,68.3,30.07,NE,51,17.0,19.0,93,0.00,,---,0.00,VWS V14.01,2013-10-14 05:48:00,
2013-10-14 01:53:00,70.4,68.3,30.07,NE,43,14.0,19.0,93,0.00,,---,0.00,VWS V14.01,2013-10-14 05:53:00,
2013-10-14 01:58:00,70.4,68.0,30.07,ENE,61,10.0,15.0,92,0.00,,---,0.00,VWS V14.01,2013-10-14 05:58:00,
2013-10-14 02:03:00,70.4,68.3,30.07,NE,53,11.0,16.0,93,0.00,,---,0.00,VWS V14.01,2013-10-14 06:03:00,
2013-10-14 02:08:00,70.3,68.2,30.06,ENE,61,15.0,17.0,93,0.00,,---,0.00,VWS V14.01,2013-10-14 06:08:00,
2013-10-14 02:14:00,70.3,68.2,30.06,NE,40,12.0,18.0,93,0.00,,---,0.00,VWS V14.01,2013-10-14 06:14:00,
2013-10-14 02:19:00,70.3,68.2,30.06,ENE,57,14.0,18.0,93,0.00,,---,0.00,VWS V14.01,2013-10-14 06:19:00,
2013-10-14 02:24:00,70.3,68.2,30.06,NE,46,12.0,19.0,93,0.00,,---,0.00,VWS V14.01,2013-10-14 06:24:00,
2013-10-14 02:29:00,70.3,68.2,30.06,ENE,65,16.0,16.0,93,0.00,,---,0.00,VWS V14.01,2013-10-14 06:29:00,
2013-10-14 02:34:00,70.2,68.1,30.07,NE,43,14.0,18.0,93,0.00,,---,0.00,VWS V14.01,2013-10-14 06:34:00,
2013-10-14 02:39:00,70.2,68.1,30.07,NE,56,14.0,18.0,93,0.00,,---,0.00,VWS V14.01,2013-10-14 06:39:00,
2013-10-14 02:44:00,70.2,68.1,30.07,NE,51,12.0,19.0,93,0.00,,---,0.00,VWS V14.01,2013-10-14 06:44:00,
2013-10-14 02:49:00,70.1,68.0,30.06,NE,39,16.0,19.0,93,0.00,,---,0.00,VWS V14.01,2013-10-14 06:49:00,
2013-10-14 02:54:00,70.1,68.0,30.06,NE,38,15.0,19.0,93,0.00,,---,0.00,VWS V14.01,2013-10-14 06:54:00,
2013-10-14 02:59:00,70.0,67.9,30.06,NE,43,11.0,17.0,93,0.00,,---,0.00,VWS V14.01,2013-10-14 06:59:00,
2013-10-14 03:04:00,70.0,67.9,30.06,ENE,66,12.0,17.0,93,0.00,,---,0.00,VWS V14.01,2013-10-14 07:04:00,
2013-10-14 03:09:00,70.0,67.9,30.06,NE,49,12.0,17.0,93,0.00,,---,0.00,VWS V14.01,2013-10-14 07:09:00,
2013-10-14 03:14:00,69.9,67.8,30.06,NE,34,13.0,17.0,93,0.00,,---,0.00,VWS V14.01,2013-10-14 07:14:00,
2013-10-14 03:20:00,69.9,67.8,30.06,NE,51,14.0,17.0,93,0.00,,---,0.00,VWS V14.01,2013-10-14 07:20:00,
2013-10-14 03:25:00,69.9,67.8,30.06,NE,55,14.0,18.0,93,0.00,,---,0.00,VWS V14.01,2013-10-14 07:25:00,
2013-10-14 03:30:00,70.0,67.9,30.06,NE,44,15.0,17.0,93,0.00,,---,0.00,VWS V14.01,2013-10-14 07:30:00,
2013-10-14 03:35:00,70.0,67.9,30.05,NE,44,13.0,17.0,93,0.00,,---,0.00,VWS V14.01,2013-10-14 07:35:00,
2013-10-14 03:40:00,69.9,67.8,30.05,NE,51,12.0,17.0,93,0.00,,---,0.00,VWS V14.01,2013-10-14 07:40:00,
2013-10-14 03:45:00,69.8,67.7,30.05,NE,44,11.0,18.0,93,0.00,,---,0.00,VWS V14.01,2013-10-14 07:45:00,
2013-10-14 03:50:00,69.9,67.8,30.05,NE,44,14.0,18.0,93,0.00,,---,0.00,VWS V14.01,2013-10-14 07:50:00,
2013-10-14 03:55:00,69.8,67.7,30.05,NNE,26,11.0,19.0,93,0.00,,---,0.00,VWS V14.01,2013-10-14 07:55:00,
2013-10-14 04:00:00,69.8,68.0,30.05,NE,46,15.0,18.0,94,0.00,,---,0.00,VWS V14.01,2013-10-14 08:00:00,
2013-10-14 04:05:00,69.8,67.7,30.05,NE,38,15.0,20.0,93,0.00,,---,0.00,VWS V14.01,2013-10-14 08:05:00,
2013-10-14 04:10:00,69.7,67.6,30.05,NE,36,15.0,20.0,93,0.00,,---,0.00,VWS V14.01,2013-10-14 08:10:00,
2013-10-14 04:15:00,69.7,67.6,30.05,NNE,30,12.0,20.0,93,0.00,,---,0.00,VWS V14.01,2013-10-14 08:15:00,
2013-10-14 04:20:00,69.7,67.6,30.06,NE,53,12.0,20.0,93,0.00,,---,0.00,VWS V14.01,2013-10-14 08:20:00,
2013-10-14 04:25:00,69.8,67.7,30.06,NE,39,10.0,20.0,93,0.00,,---,0.00,VWS V14.01,2013-10-14 08:25:00,
2013-10-14 04:30:00,69.8,67.7,30.06,ENE,59,14.0,15.0,93,0.00,,---,0.00,VWS V14.01,2013-10-14 08:30:00,
2013-10-14 04:36:00,69.7,67.9,30.06,NE,51,16.0,20.0,94,0.00,,---,0.00,VWS V14.01,2013-10-14 08:36:00,
2013-10-14 04:41:00,69.7,67.6,30.06,NE,40,13.0,20.0,93,0.00,,---,0.00,VWS V14.01,2013-10-14 08:41:00,
2013-10-14 04:46:00,69.6,67.8,30.06,NE,41,14.0,20.0,94,0.00,,---,0.00,VWS V14.01,2013-10-14 08:46:00,
2013-10-14 04:51:00,69.5,67.7,30.06,NE,42,13.0,20.0,94,0.00,,---,0.00,VWS V14.01,2013-10-14 08:51:00,
2013-10-14 04:56:00,69.5,67.7,30.06,NNE,18,10.0,20.0,94,0.00,,---,0.00,VWS V14.01,2013-10-14 08:56:00,
2013-10-14 05:01:00,69.5,67.7,30.06,NE,46,15.0,16.0,94,0.00,,---,0.00,VWS V14.01,2013-10-14 09:01:00,
2013-10-14 05:06:00,69.5,67.7,30.07,NE,56,14.0,16.0,94,0.00,,---,0.00,VWS V14.01,2013-10-14 09:06:00,
2013-10-14 05:11:00,69.5,67.7,30.07,ENE,62,13.0,16.0,94,0.00,,---,0.00,VWS V14.01,2013-10-14 09:11:00,
2013-10-14 05:16:00,69.6,67.8,30.07,NE,49,12.0,16.0,94,0.00,,---,0.00,VWS V14.01,2013-10-14 09:16:00,
2013-10-14 05:21:00,69.6,67.8,30.07,NE,42,13.0,16.0,94,0.00,,---,0.00,VWS V14.01,2013-10-14 09:21:00,
2013-10-14 05:26:00,69.6,67.8,30.07,NE,38,14.0,16.0,94,0.00,,---,0.00,VWS V14.01,2013-10-14 09:26:00,
2013-10-14 05:31:00,69.6,67.8,30.07,NE,42,13.0,16.0,94,0.00,,---,0.00,VWS V14.01,2013-10-14 09:31:00,
2013-10-14 05:36:00,69.6,67.5,30.07,NE,43,11.0,17.0,93,0.00,,---,0.00,VWS V14.01,2013-10-14 09:36:00,
2013-10-14 05:41:00,69.7,67.6,30.07,NE,46,14.0,19.0,93,0.00,,---,0.00,VWS V14.01,2013-10-14 09:41:00,
2013-10-14 05:46:00,69.8,67.7,30.07,NE,43,12.0,19.0,93,0.00,,---,0.00,VWS V14.01,2013-10-14 09:46:00,
2013-10-14 05:51:00,69.9,67.8,30.07,NE,46,15.0,19.0,93,0.00,,---,0.00,VWS V14.01,2013-10-14 09:51:00,
2013-10-14 05:57:00,69.9,67.8,30.07,ENE,64,13.0,19.0,93,0.00,,---,0.00,VWS V14.01,2013-10-14 09:57:00,
2013-10-14 06:02:00,69.9,67.8,30.07,NE,40,12.0,15.0,93,0.00,,---,0.00,VWS V14.01,2013-10-14 10:02:00,
2013-10-14 06:07:00,69.9,67.5,30.08,NE,46,16.0,17.0,92,0.00,,---,0.00,VWS V14.01,2013-10-14 10:07:00,
2013-10-14 06:12:00,69.8,67.7,30.08,NE,55,12.0,17.0,93,0.00,,---,0.00,VWS V14.01,2013-10-14 10:12:00,
2013-10-14 06:17:00,69.7,67.6,30.08,NE,48,9.0,17.0,93,0.00,,---,0.00,VWS V14.01,2013-10-14 10:17:00,
2013-10-14 06:22:00,69.7,67.6,30.08,NE,37,17.0,19.0,93,0.00,,---,0.00,VWS V14.01,2013-10-14 10:22:00,
2013-10-14 06:27:00,69.7,67.6,30.08,NE,38,13.0,19.0,93,0.00,,---,0.00,VWS V14.01,2013-10-14 10:27:00,
2013-10-14 06:32:00,69.6,67.5,30.08,NE,50,16.0,16.0,93,0.00,,---,0.00,VWS V14.01,2013-10-14 10:32:00,
2013-10-14 06:37:00,69.6,67.5,30.09,ENE,57,13.0,17.0,93,0.00,,---,0.00,VWS V14.01,2013-10-14 10:37:00,
2013-10-14 06:42:00,69.5,67.4,30.09,NE,53,15.0,17.0,93,0.00,,---,0.00,VWS V14.01,2013-10-14 10:42:00,
2013-10-14 06:47:00,69.5,67.4,30.08,NE,39,13.0,18.0,93,0.00,,---,0.00,VWS V14.01,2013-10-14 10:47:00,
2013-10-14 06:52:00,69.5,67.4,30.08,NE,47,13.0,18.0,93,0.00,,---,0.00,VWS V14.01,2013-10-14 10:52:00,
2013-10-14 06:57:00,69.5,67.4,30.08,NE,45,15.0,15.0,93,0.00,,---,0.00,VWS V14.01,2013-10-14 10:57:00,
2013-10-14 07:02:00,69.5,67.4,30.08,NE,52,16.0,17.0,93,0.00,,---,0.00,VWS V14.01,2013-10-14 11:02:00,
2013-10-14 07:07:00,69.4,67.3,30.08,ENE,60,14.0,17.0,93,0.00,,---,0.00,VWS V14.01,2013-10-14 11:07:00,
2013-10-14 07:13:00,69.4,67.3,30.08,NE,53,15.0,18.0,93,0.00,,---,0.00,VWS V14.01,2013-10-14 11:13:00,
2013-10-14 07:18:00,69.4,67.3,30.08,NE,51,13.0,18.0,93,0.00,,---,0.00,VWS V14.01,2013-10-14 11:18:00,
2013-10-14 07:23:00,69.3,67.2,30.09,NE,49,13.0,18.0,93,0.00,,---,0.00,VWS V14.01,2013-10-14 11:23:00,
2013-10-14 07:28:00,69.4,67.6,30.09,NE,42,14.0,14.0,94,0.00,,---,0.00,VWS V14.01,2013-10-14 11:28:00,
2013-10-14 07:33:00,69.3,67.2,30.09,NE,51,15.0,19.0,93,0.00,,---,0.00,VWS V14.01,2013-10-14 11:33:00,
2013-10-14 07:38:00,69.3,67.2,30.08,NE,49,15.0,19.0,93,0.00,,---,0.00,VWS V14.01,2013-10-14 11:38:00,
2013-10-14 07:43:00,69.3,67.2,30.09,NE,51,15.0,19.0,93,0.00,,---,0.00,VWS V14.01,2013-10-14 11:43:00,
2013-10-14 07:48:00,69.4,67.3,30.09,NE,44,15.0,19.0,93,0.00,,---,0.00,VWS V14.01,2013-10-14 11:48:00,
2013-10-14 07:53:00,69.3,67.2,30.09,NE,49,17.0,21.0,93,0.00,,---,0.00,VWS V14.01,2013-10-14 11:53:00,
2013-10-14 07:58:00,69.3,67.2,30.09,NE,52,14.0,15.0,93,0.00,,---,0.00,VWS V14.01,2013-10-14 11:58:00,
2013-10-14 08:03:00,69.3,67.2,30.10,NE,56,14.0,16.0,93,0.00,,---,0.00,VWS V14.01,2013-10-14 12:03:00,
2013-10-14 08:08:00,69.3,67.2,30.10,NE,56,12.0,20.0,93,0.00,,---,0.00,VWS V14.01,2013-10-14 12:08:00,
2013-10-14 08:13:00,69.4,67.3,30.10,NE,55,14.0,20.0,93,0.00,,---,0.00,VWS V14.01,2013-10-14 12:13:00,
2013-10-14 08:18:00,69.4,67.3,30.10,NE,51,17.0,20.0,93,0.00,,---,0.00,VWS V14.01,2013-10-14 12:18:00,
2013-10-14 08:24:00,69.5,67.4,30.10,ENE,62,15.0,20.0,93,0.00,,---,0.00,VWS V14.01,2013-10-14 12:24:00,
2013-10-14 08:29:00,69.6,67.2,30.10,ENE,60,15.0,16.0,92,0.00,,---,0.00,VWS V14.01,2013-10-14 12:29:00,
2013-10-14 08:34:00,69.7,67.0,30.11,NE,53,14.0,16.0,91,0.00,,---,0.00,VWS V14.01,2013-10-14 12:34:00,
2013-10-14 08:39:00,69.8,67.1,30.11,ENE,61,9.0,17.0,91,0.00,,---,0.00,VWS V14.01,2013-10-14 12:39:00,
2013-10-14 08:44:00,69.8,67.1,30.10,NE,46,13.0,20.0,91,0.00,,---,0.00,VWS V14.01,2013-10-14 12:44:00,
2013-10-14 08:49:00,69.9,67.2,30.11,ENE,57,14.0,20.0,91,0.00,,---,0.00,VWS V14.01,2013-10-14 12:49:00,
2013-10-14 08:54:00,70.0,66.9,30.11,NE,54,13.0,22.0,90,0.00,,---,0.00,VWS V14.01,2013-10-14 12:54:00,
2013-10-14 08:59:00,70.1,67.0,30.11,ENE,61,12.0,14.0,90,0.00,,---,0.00,VWS V14.01,2013-10-14 12:59:00,
2013-10-14 09:04:00,70.1,67.0,30.12,ENE,64,11.0,19.0,90,0.00,,---,0.00,VWS V14.01,2013-10-14 13:04:00,
2013-10-14 09:09:00,70.1,67.0,30.12,NE,53,12.0,19.0,90,0.00,,---,0.00,VWS V14.01,2013-10-14 13:09:00,
2013-10-14 09:14:00,70.3,66.9,30.12,NE,56,12.0,19.0,89,0.00,,---,0.00,VWS V14.01,2013-10-14 13:14:00,
2013-10-14 09:19:00,70.4,67.0,30.12,ENE,60,14.0,19.0,89,0.00,,---,0.00,VWS V14.01,2013-10-14 13:19:00,
2013-10-14 09:24:00,70.4,66.7,30.12,NE,53,11.0,19.0,88,0.00,,---,0.00,VWS V14.01,2013-10-14 13:24:00,
2013-10-14 09:29:00,70.5,67.1,30.12,ENE,57,12.0,19.0,89,0.00,,---,0.00,VWS V14.01,2013-10-14 13:29:00,
2013-10-14 09:34:00,70.5,67.1,30.12,ENE,72,13.0,21.0,89,0.00,,---,0.00,VWS V14.01,2013-10-14 13:34:00,
2013-10-14 09:39:00,70.6,67.2,30.12,NE,46,18.0,21.0,89,0.00,,---,0.00,VWS V14.01,2013-10-14 13:39:00,
2013-10-14 09:45:00,70.6,66.9,30.12,NE,42,18.0,21.0,88,0.00,,---,0.00,VWS V14.01,2013-10-14 13:45:00,
2013-10-14 09:50:00,70.7,66.7,30.11,NE,55,17.0,21.0,87,0.00,,---,0.00,VWS V14.01,2013-10-14 13:50:00,
2013-10-14 09:55:00,70.7,67.0,30.12,NNE,23,18.0,21.0,88,0.00,,---,0.00,VWS V14.01,2013-10-14 13:55:00,
2013-10-14 10:00:00,70.8,67.1,30.12,NE,52,14.0,18.0,88,0.00,,---,0.00,VWS V14.01,2013-10-14 14:00:00,
2013-10-14 10:05:00,71.1,67.4,30.11,ENE,64,20.0,22.0,88,0.00,,---,0.00,VWS V14.01,2013-10-14 14:05:00,
2013-10-14 10:10:00,71.2,67.1,30.11,ENE,76,15.0,22.0,87,0.00,,---,0.00,VWS V14.01,2013-10-14 14:10:00,
2013-10-14 10:15:00,71.2,67.1,30.11,NE,48,17.0,22.0,87,0.00,,---,0.00,VWS V14.01,2013-10-14 14:15:00,
2013-10-14 10:20:00,71.2,66.8,30.11,NE,42,15.0,23.0,86,0.00,,---,0.00,VWS V14.01,2013-10-14 14:20:00,
2013-10-14 10:25:00,71.2,67.1,30.11,NE,43,23.0,24.0,87,0.00,,---,0.00,VWS V14.01,2013-10-14 14:25:00,
2013-10-14 10:30:00,71.3,67.2,30.11,NE,55,15.0,25.0,87,0.00,,---,0.00,VWS V14.01,2013-10-14 14:30:00,
2013-10-14 10:35:00,71.5,67.1,30.11,ENE,66,19.0,25.0,86,0.00,,---,0.00,VWS V14.01,2013-10-14 14:35:00,
2013-10-14 10:40:00,71.7,67.3,30.11,NE,55,10.0,25.0,86,0.00,,---,0.00,VWS V14.01,2013-10-14 14:40:00,
2013-10-14 10:45:00,71.9,67.2,30.11,NE,46,20.0,25.0,85,0.00,,---,0.00,VWS V14.01,2013-10-14 14:45:00,
2013-10-14 10:50:00,71.9,66.8,30.11,NE,53,19.0,25.0,84,0.00,,---,0.00,VWS V14.01,2013-10-14 14:50:00,
2013-10-14 10:55:00,71.9,66.8,30.11,ENE,61,18.0,25.0,84,0.00,,---,0.00,VWS V14.01,2013-10-14 14:55:00,
2013-10-14 11:01:00,72.0,66.9,30.11,NE,49,23.0,27.0,84,0.00,,---,0.00,VWS V14.01,2013-10-14 15:01:00,
2013-10-14 11:06:00,72.0,66.9,30.11,ENE,78,17.0,27.0,84,0.00,,---,0.00,VWS V14.01,2013-10-14 15:06:00,
2013-10-14 11:11:00,72.1,67.0,30.10,NE,55,19.0,27.0,84,0.00,,---,0.00,VWS V14.01,2013-10-14 15:11:00,
2013-10-14 11:16:00,72.1,66.7,30.11,NE,47,16.0,27.0,83,0.00,,---,0.00,VWS V14.01,2013-10-14 15:16:00,
2013-10-14 11:21:00,72.1,67.0,30.11,ENE,57,22.0,27.0,84,0.00,,---,0.00,VWS V14.01,2013-10-14 15:21:00,
2013-10-14 11:26:00,71.9,66.8,30.11,ENE,61,20.0,27.0,84,0.00,,---,0.00,VWS V14.01,2013-10-14 15:26:00,
2013-10-14 11:31:00,72.0,66.9,30.11,NE,55,16.0,20.0,84,0.00,,---,0.00,VWS V14.01,2013-10-14 15:31:00,
2013-10-14 11:36:00,72.1,67.3,30.10,ENE,59,13.0,20.0,85,0.00,,---,0.00,VWS V14.01,2013-10-14 15:36:00,
2013-10-14 11:41:00,72.2,67.1,30.11,ENE,57,14.0,20.0,84,0.00,,---,0.00,VWS V14.01,2013-10-14 15:41:00,
2013-10-14 11:46:00,72.2,67.1,30.11,ENE,67,20.0,21.0,84,0.00,,---,0.00,VWS V14.01,2013-10-14 15:46:00,
2013-10-14 11:51:00,72.1,67.3,30.11,ENE,71,14.0,23.0,85,0.00,,---,0.00,VWS V14.01,2013-10-14 15:51:00,
2013-10-14 11:56:00,72.0,66.9,30.11,ENE,67,20.0,23.0,84,0.00,,---,0.00,VWS V14.01,2013-10-14 15:56:00,
2013-10-14 12:01:00,71.9,67.2,30.11,NE,43,12.0,20.0,85,0.00,,---,0.00,VWS V14.01,2013-10-14 16:01:00,
2013-10-14 12:06:00,71.7,66.9,30.11,NE,49,11.0,20.0,85,0.00,,---,0.00,VWS V14.01,2013-10-14 16:06:00,
2013-10-14 12:11:00,71.7,66.9,30.11,ENE,76,14.0,20.0,85,0.00,,---,0.00,VWS V14.01,2013-10-14 16:11:00,
2013-10-14 12:16:00,71.8,67.1,30.11,NE,40,15.0,21.0,85,0.00,,---,0.00,VWS V14.01,2013-10-14 16:16:00,
2013-10-14 12:22:00,71.9,67.2,30.11,NE,42,17.0,21.0,85,0.00,,---,0.00,VWS V14.01,2013-10-14 16:22:00,
2013-10-14 12:27:00,72.0,67.2,30.11,NE,52,14.0,23.0,85,0.00,,---,0.00,VWS V14.01,2013-10-14 16:27:00,
2013-10-14 12:32:00,72.0,67.2,30.11,ENE,59,16.0,23.0,85,0.00,,---,0.00,VWS V14.01,2013-10-14 16:32:00,
2013-10-14 12:37:00,72.1,67.0,30.11,ENE,70,19.0,24.0,84,0.00,,---,0.00,VWS V14.01,2013-10-14 16:37:00,
2013-10-14 12:42:00,72.2,67.1,30.11,NE,51,14.0,24.0,84,0.00,,---,0.00,VWS V14.01,2013-10-14 16:42:00,
2013-10-14 12:47:00,72.3,66.8,30.10,ENE,57,19.0,24.0,83,0.00,,---,0.00,VWS V14.01,2013-10-14 16:47:00,
2013-10-14 12:52:00,72.2,67.1,30.10,NE,40,19.0,24.0,84,0.00,,---,0.00,VWS V14.01,2013-10-14 16:52:00,
2013-10-14 12:57:00,72.3,67.2,30.10,NE,34,18.0,24.0,84,0.00,,---,0.00,VWS V14.01,2013-10-14 16:57:00,
2013-10-14 13:02:00,72.1,66.7,30.10,NE,53,17.0,23.0,83,0.00,,---,0.00,VWS V14.01,2013-10-14 17:02:00,
2013-10-14 13:07:00,72.3,67.5,30.10,NE,42,16.0,23.0,85,0.00,,---,0.00,VWS V14.01,2013-10-14 17:07:00,
2013-10-14 13:12:00,72.3,66.8,30.09,NE,46,20.0,23.0,83,0.00,,---,0.00,VWS V14.01,2013-10-14 17:12:00,
2013-10-14 13:17:00,72.3,67.2,30.09,NE,49,18.0,25.0,84,0.00,,---,0.00,VWS V14.01,2013-10-14 17:17:00,
2013-10-14 13:22:00,72.3,67.5,30.09,NE,56,21.0,25.0,85,0.00,,---,0.00,VWS V14.01,2013-10-14 17:22:00,
2013-10-14 13:27:00,72.0,67.2,30.09,ENE,57,18.0,22.0,85,0.00,,---,0.00,VWS V14.01,2013-10-14 17:27:00,
2013-10-14 13:32:00,71.6,67.2,30.09,NE,49,19.0,23.0,86,0.00,,---,0.00,VWS V14.01,2013-10-14 17:32:00,
2013-10-14 13:38:00,71.5,67.4,30.09,NNE,33,17.0,23.0,87,0.00,,---,0.00,VWS V14.01,2013-10-14 17:38:00,
2013-10-14 13:43:00,71.3,67.2,30.09,NE,38,15.0,23.0,87,0.00,,---,0.00,VWS V14.01,2013-10-14 17:43:00,
2013-10-14 13:48:00,71.5,67.4,30.08,NE,45,14.0,23.0,87,0.00,,---,0.00,VWS V14.01,2013-10-14 17:48:00,
2013-10-14 13:53:00,71.6,67.2,30.08,NE,44,13.0,23.0,86,0.00,,---,0.00,VWS V14.01,2013-10-14 17:53:00,
2013-10-14 13:58:00,71.8,67.1,30.08,NE,47,15.0,19.0,85,0.00,,---,0.00,VWS V14.01,2013-10-14 17:58:00,
2013-10-14 14:03:00,72.1,67.3,30.08,NE,47,13.0,19.0,85,0.00,,---,0.00,VWS V14.01,2013-10-14 18:03:00,
2013-10-14 14:08:00,72.1,67.3,30.08,NE,48,16.0,20.0,85,0.00,,---,0.00,VWS V14.01,2013-10-14 18:08:00,
2013-10-14 14:13:00,72.1,67.0,30.07,ENE,60,16.0,20.0,84,0.00,,---,0.00,VWS V14.01,2013-10-14 18:13:00,
2013-10-14 14:18:00,72.1,67.3,30.07,ENE,63,12.0,20.0,85,0.00,,---,0.00,VWS V14.01,2013-10-14 18:18:00,
2013-10-14 14:23:00,72.1,67.0,30.07,ENE,59,15.0,21.0,84,0.00,,---,0.00,VWS V14.01,2013-10-14 18:23:00,
2013-10-14 14:28:00,72.1,67.0,30.07,ENE,72,15.0,18.0,84,0.00,,---,0.00,VWS V14.01,2013-10-14 18:28:00,
2013-10-14 14:33:00,71.9,67.2,30.07,NE,43,20.0,23.0,85,0.00,,---,0.00,VWS V14.01,2013-10-14 18:33:00,
2013-10-14 14:38:00,71.6,66.5,30.07,ENE,61,19.0,24.0,84,0.00,,---,0.00,VWS V14.01,2013-10-14 18:38:00,
2013-10-14 14:43:00,71.7,66.9,30.07,ENE,74,19.0,24.0,85,0.00,,---,0.00,VWS V14.01,2013-10-14 18:43:00,
2013-10-14 14:49:00,71.8,66.7,30.07,East,85,15.0,24.0,84,0.00,,---,0.00,VWS V14.01,2013-10-14 18:49:00,
2013-10-14 14:54:00,71.7,66.9,30.07,NE,44,17.0,24.0,85,0.00,,---,0.00,VWS V14.01,2013-10-14 18:54:00,
2013-10-14 14:59:00,71.5,67.1,30.07,NE,43,18.0,18.0,86,0.00,,---,0.00,VWS V14.01,2013-10-14 18:59:00,
2013-10-14 15:04:00,71.2,67.1,30.07,ENE,59,16.0,22.0,87,0.00,,---,0.00,VWS V14.01,2013-10-14 19:04:00,
2013-10-14 15:09:00,71.0,66.9,30.07,NE,56,20.0,22.0,87,0.00,,---,0.00,VWS V14.01,2013-10-14 19:09:00,
2013-10-14 15:14:00,71.0,66.6,30.07,NE,42,18.0,22.0,86,0.00,,---,0.00,VWS V14.01,2013-10-14 19:14:00,
2013-10-14 15:19:00,71.1,66.7,30.07,NE,51,16.0,22.0,86,0.00,,---,0.00,VWS V14.01,2013-10-14 19:19:00,
2013-10-14 15:24:00,71.3,66.9,30.07,ENE,57,10.0,22.0,86,0.00,,---,0.00,VWS V14.01,2013-10-14 19:24:00,
2013-10-14 15:29:00,71.4,67.0,30.07,ENE,61,13.0,20.0,86,0.00,,---,0.00,VWS V14.01,2013-10-14 19:29:00,
2013-10-14 15:34:00,71.7,66.9,30.07,ENE,60,15.0,20.0,85,0.00,,---,0.00,VWS V14.01,2013-10-14 19:34:00,
2013-10-14 15:39:00,71.8,66.7,30.06,ENE,69,18.0,20.0,84,0.00,,---,0.00,VWS V14.01,2013-10-14 19:39:00,
2013-10-14 15:44:00,72.1,67.0,30.06,NE,46,14.0,20.0,84,0.00,,---,0.00,VWS V14.01,2013-10-14 19:44:00,
2013-10-14 15:49:00,71.9,66.8,30.06,ENE,66,15.0,20.0,84,0.00,,---,0.00,VWS V14.01,2013-10-14 19:49:00,
2013-10-14 15:54:00,71.9,66.8,30.06,NE,46,13.0,20.0,84,0.00,,---,0.00,VWS V14.01,2013-10-14 19:54:00,
2013-10-14 15:59:00,71.7,66.9,30.06,ENE,58,14.0,17.0,85,0.00,,---,0.00,VWS V14.01,2013-10-14 19:59:00,
2013-10-14 16:04:00,71.7,66.9,30.06,ENE,63,12.0,19.0,85,0.00,,---,0.00,VWS V14.01,2013-10-14 20:04:00,
2013-10-14 16:10:00,71.7,66.9,30.06,NE,51,15.0,19.0,85,0.00,,---,0.00,VWS V14.01,2013-10-14 20:10:00,
2013-10-14 16:15:00,71.8,67.1,30.06,NE,44,12.0,20.0,85,0.00,,---,0.00,VWS V14.01,2013-10-14 20:15:00,
2013-10-14 16:20:00,71.9,66.8,30.06,ENE,68,14.0,20.0,84,0.00,,---,0.00,VWS V14.01,2013-10-14 20:20:00,
2013-10-14 16:25:00,72.0,66.9,30.06,NE,49,17.0,20.0,84,0.00,,---,0.00,VWS V14.01,2013-10-14 20:25:00,
2013-10-14 16:30:00,72.1,67.0,30.06,NE,46,11.0,15.0,84,0.00,,---,0.00,VWS V14.01,2013-10-14 20:30:00,
2013-10-14 16:35:00,72.1,67.0,30.06,NE,40,12.0,15.0,84,0.00,,---,0.00,VWS V14.01,2013-10-14 20:35:00,
2013-10-14 16:40:00,72.2,67.1,30.06,NE,39,13.0,18.0,84,0.00,,---,0.00,VWS V14.01,2013-10-14 20:40:00,
2013-10-14 16:45:00,72.2,67.1,30.06,ENE,58,16.0,19.0,84,0.00,,---,0.00,VWS V14.01,2013-10-14 20:45:00,
2013-10-14 16:50:00,72.2,66.4,30.06,ENE,63,16.0,20.0,82,0.00,,---,0.00,VWS V14.01,2013-10-14 20:50:00,
2013-10-14 16:55:00,72.0,66.2,30.06,East,88,11.0,21.0,82,0.00,,---,0.00,VWS V14.01,2013-10-14 20:55:00,
2013-10-14 17:00:00,72.1,66.7,30.06,ENE,62,16.0,21.0,83,0.00,,---,0.00,VWS V14.01,2013-10-14 21:00:00,
2013-10-14 17:03:00,72.1,66.7,30.06,ENE,61,15.0,21.0,83,0.00,,---,0.00,VWS V14.01,2013-10-14 21:03:00,
2013-10-14 17:08:00,71.9,66.5,30.07,NE,46,14.0,21.0,83,0.00,,---,0.00,VWS V14.01,2013-10-14 21:08:00,
2013-10-14 17:13:00,71.6,66.2,30.07,ENE,58,18.0,21.0,83,0.00,,---,0.00,VWS V14.01,2013-10-14 21:13:00,
2013-10-14 17:18:00,71.5,66.4,30.07,NE,47,15.0,21.0,84,0.00,,---,0.00,VWS V14.01,2013-10-14 21:18:00,
2013-10-14 17:23:00,71.2,66.5,30.07,NE,39,19.0,22.0,85,0.00,,---,0.00,VWS V14.01,2013-10-14 21:23:00,
2013-10-14 17:28:00,71.1,66.7,30.07,NE,52,22.0,22.0,86,0.00,,---,0.00,VWS V14.01,2013-10-14 21:28:00,
2013-10-14 17:33:00,70.9,66.2,30.07,NE,47,24.0,26.0,85,0.00,,---,0.00,VWS V14.01,2013-10-14 21:33:00,
2013-10-14 17:38:00,70.8,66.1,30.07,NE,39,18.0,26.0,85,0.00,,---,0.00,VWS V14.01,2013-10-14 21:38:00,
2013-10-14 17:43:00,70.8,66.1,30.07,NNE,26,16.0,26.0,85,0.00,,---,0.00,VWS V14.01,2013-10-14 21:43:00,
2013-10-14 17:48:00,70.7,66.3,30.08,NNE,30,18.0,26.0,86,0.00,,---,0.00,VWS V14.01,2013-10-14 21:48:00,
2013-10-14 17:54:00,70.7,66.0,30.08,NE,40,17.0,26.0,85,0.00,,---,0.00,VWS V14.01,2013-10-14 21:54:00,
2013-10-14 17:59:00,70.5,66.1,30.08,NE,50,15.0,20.0,86,0.00,,---,0.00,VWS V14.01,2013-10-14 21:59:00,
2013-10-14 18:04:00,70.5,66.4,30.08,NE,52,15.0,20.0,87,0.00,,---,0.00,VWS V14.01,2013-10-14 22:04:00,
2013-10-14 18:09:00,70.3,65.6,30.08,NE,46,19.0,22.0,85,0.00,,---,0.00,VWS V14.01,2013-10-14 22:09:00,
2013-10-14 18:14:00,70.2,66.2,30.08,NE,53,15.0,22.0,87,0.00,,---,0.00,VWS V14.01,2013-10-14 22:14:00,
2013-10-14 18:19:00,70.1,66.1,30.08,NE,49,18.0,22.0,87,0.00,,---,0.00,VWS V14.01,2013-10-14 22:19:00,
2013-10-14 18:24:00,70.1,65.7,30.08,NE,43,18.0,22.0,86,0.00,,---,0.00,VWS V14.01,2013-10-14 22:24:00,
2013-10-14 18:29:00,70.0,65.6,30.09,NE,44,17.0,24.0,86,0.00,,---,0.00,VWS V14.01,2013-10-14 22:29:00,
2013-10-14 18:34:00,69.9,65.9,30.09,NNE,32,17.0,24.0,87,0.00,,---,0.00,VWS V14.01,2013-10-14 22:34:00,
2013-10-14 18:39:00,69.8,66.1,30.09,NE,36,12.0,24.0,88,0.00,,---,0.00,VWS V14.01,2013-10-14 22:39:00,
2013-10-14 18:44:00,69.8,66.1,30.10,NNE,32,17.0,24.0,88,0.00,,---,0.00,VWS V14.01,2013-10-14 22:44:00,
2013-10-14 18:49:00,69.6,65.6,30.10,NE,40,16.0,24.0,87,0.00,,---,0.00,VWS V14.01,2013-10-14 22:49:00,
2013-10-14 18:54:00,69.4,65.4,30.10,NNE,32,15.0,24.0,87,0.00,,---,0.00,VWS V14.01,2013-10-14 22:54:00,
2013-10-14 18:59:00,69.4,65.7,30.10,NE,41,16.0,21.0,88,0.00,,---,0.00,VWS V14.01,2013-10-14 22:59:00,
2013-10-14 19:05:00,69.2,65.2,30.10,NE,44,15.0,23.0,87,0.00,,---,0.00,VWS V14.01,2013-10-14 23:05:00,
2013-10-14 19:10:00,69.0,65.0,30.10,NE,44,17.0,25.0,87,0.00,,---,0.00,VWS V14.01,2013-10-14 23:10:00,
2013-10-14 19:15:00,68.8,65.1,30.11,NE,36,20.0,25.0,88,0.00,,---,0.00,VWS V14.01,2013-10-14 23:15:00,
2013-10-14 19:20:00,68.7,65.3,30.11,NE,35,19.0,25.0,89,0.00,,---,0.00,VWS V14.01,2013-10-14 23:20:00,
2013-10-14 19:25:00,68.6,65.2,30.11,NE,36,18.0,26.0,89,0.00,,---,0.00,VWS V14.01,2013-10-14 23:25:00,
2013-10-14 19:30:00,68.6,65.2,30.11,ENE,61,18.0,21.0,89,0.00,,---,0.00,VWS V14.01,2013-10-14 23:30:00,
2013-10-14 19:35:00,68.5,64.5,30.10,NE,42,20.0,22.0,87,0.00,,---,0.00,VWS V14.01,2013-10-14 23:35:00,
2013-10-14 19:40:00,68.4,64.7,30.11,ENE,58,21.0,26.0,88,0.00,,---,0.00,VWS V14.01,2013-10-14 23:40:00,
2013-10-14 19:45:00,68.4,64.7,30.10,ENE,61,19.0,26.0,88,0.00,,---,0.00,VWS V14.01,2013-10-14 23:45:00,
2013-10-14 19:50:00,68.4,64.7,30.10,ENE,57,20.0,26.0,88,0.00,,---,0.00,VWS V14.01,2013-10-14 23:50:00,
2013-10-14 19:55:00,68.5,65.1,30.10,NE,52,20.0,26.0,89,0.00,,---,0.00,VWS V14.01,2013-10-14 23:55:00,
2013-10-14 20:00:00,68.5,65.1,30.10,NE,49,22.0,22.0,89,0.00,,---,0.00,VWS V14.01,2013-10-15 00:00:00,
2013-10-14 20:05:00,68.4,65.0,30.10,NE,50,20.0,23.0,89,0.00,,---,0.00,VWS V14.01,2013-10-15 00:05:00,
2013-10-14 20:10:00,68.4,65.0,30.10,NE,53,14.0,24.0,89,0.00,,---,0.00,VWS V14.01,2013-10-15 00:10:00,
2013-10-14 20:15:00,68.3,64.9,30.10,NE,56,20.0,24.0,89,0.00,,---,0.00,VWS V14.01,2013-10-15 00:15:00,
2013-10-14 20:20:00,68.3,64.9,30.10,ENE,61,20.0,24.0,89,0.00,,---,0.00,VWS V14.01,2013-10-15 00:20:00,
2013-10-14 20:25:00,68.4,65.0,30.10,ENE,66,23.0,24.0,89,0.00,,---,0.00,VWS V14.01,2013-10-15 00:25:00,
2013-10-14 20:31:00,68.3,64.9,30.10,ENE,72,19.0,23.0,89,0.00,,---,0.00,VWS V14.01,2013-10-15 00:31:00,
2013-10-14 20:36:00,68.3,64.6,30.10,NE,54,23.0,25.0,88,0.00,,---,0.00,VWS V14.01,2013-10-15 00:36:00,
2013-10-14 20:41:00,68.2,64.5,30.10,ENE,58,22.0,25.0,88,0.00,,---,0.00,VWS V14.01,2013-10-15 00:41:00,
2013-10-14 20:46:00,68.2,64.5,30.10,NE,44,20.0,25.0,88,0.00,,---,0.00,VWS V14.01,2013-10-15 00:46:00,
2013-10-14 20:51:00,68.2,64.5,30.10,NE,40,15.0,25.0,88,0.00,,---,0.00,VWS V14.01,2013-10-15 00:51:00,
2013-10-14 20:56:00,68.2,64.5,30.09,NE,42,17.0,26.0,88,0.00,,---,0.00,VWS V14.01,2013-10-15 00:56:00,
2013-10-14 21:01:00,68.3,64.3,30.09,NE,36,19.0,27.0,87,0.00,,---,0.00,VWS V14.01,2013-10-15 01:01:00,
2013-10-14 21:06:00,68.2,64.2,30.09,NE,42,16.0,27.0,87,0.00,,---,0.00,VWS V14.01,2013-10-15 01:06:00,
2013-10-14 21:11:00,68.2,64.2,30.10,NE,42,15.0,27.0,87,0.00,,---,0.00,VWS V14.01,2013-10-15 01:11:00,
2013-10-14 21:16:00,68.2,64.2,30.09,NE,42,16.0,27.0,87,0.00,,---,0.00,VWS V14.01,2013-10-15 01:16:00,
2013-10-14 21:21:00,68.1,64.1,30.10,NE,36,16.0,27.0,87,0.00,,---,0.00,VWS V14.01,2013-10-15 01:21:00,
2013-10-14 21:26:00,68.0,64.0,30.10,NE,47,12.0,27.0,87,0.00,,---,0.00,VWS V14.01,2013-10-15 01:26:00,
2013-10-14 21:31:00,67.9,63.6,30.10,NE,49,13.0,19.0,86,0.00,,---,0.00,VWS V14.01,2013-10-15 01:31:00,
2013-10-14 21:36:00,67.9,63.9,30.10,NE,48,16.0,20.0,87,0.00,,---,0.00,VWS V14.01,2013-10-15 01:36:00,
2013-10-14 21:41:00,67.9,63.6,30.10,NE,44,14.0,20.0,86,0.00,,---,0.00,VWS V14.01,2013-10-15 01:41:00,
2013-10-14 21:46:00,67.9,63.6,30.10,NE,37,17.0,20.0,86,0.00,,---,0.00,VWS V14.01,2013-10-15 01:46:00,
2013-10-14 21:52:00,67.9,63.6,30.10,NE,49,17.0,20.0,86,0.00,,---,0.00,VWS V14.01,2013-10-15 01:52:00,
2013-10-14 21:57:00,67.9,63.6,30.10,NE,39,13.0,24.0,86,0.00,,---,0.00,VWS V14.01,2013-10-15 01:57:00,
2013-10-14 22:02:00,67.8,63.5,30.10,NE,40,16.0,18.0,86,0.00,,---,0.00,VWS V14.01,2013-10-15 02:02:00,
2013-10-14 22:07:00,67.7,63.0,30.10,NE,40,17.0,21.0,85,0.00,,---,0.00,VWS V14.01,2013-10-15 02:07:00,
2013-10-14 22:12:00,67.6,63.3,30.09,NE,38,15.0,21.0,86,0.00,,---,0.00,VWS V14.01,2013-10-15 02:12:00,
2013-10-14 22:17:00,67.6,63.3,30.09,NE,49,15.0,21.0,86,0.00,,---,0.00,VWS V14.01,2013-10-15 02:17:00,
2013-10-14 22:22:00,67.5,62.8,30.09,NE,36,12.0,21.0,85,0.00,,---,0.00,VWS V14.01,2013-10-15 02:22:00,
2013-10-14 22:27:00,67.4,62.7,30.09,NE,34,13.0,21.0,85,0.00,,---,0.00,VWS V14.01,2013-10-15 02:27:00,
2013-10-14 22:32:00,67.2,62.9,30.09,NNE,22,13.0,19.0,86,0.00,,---,0.00,VWS V14.01,2013-10-15 02:32:00,
2013-10-14 22:37:00,67.1,62.8,30.09,NE,46,11.0,19.0,86,0.00,,---,0.00,VWS V14.01,2013-10-15 02:37:00,
2013-10-14 22:42:00,66.8,62.5,30.09,NNE,27,13.0,19.0,86,0.00,,---,0.00,VWS V14.01,2013-10-15 02:42:00,
2013-10-14 22:47:00,66.7,62.7,30.09,NE,50,14.0,19.0,87,0.00,,---,0.00,VWS V14.01,2013-10-15 02:47:00,
2013-10-14 22:52:00,66.5,62.5,30.10,NE,41,16.0,19.0,87,0.00,,---,0.00,VWS V14.01,2013-10-15 02:52:00,
2013-10-14 22:57:00,66.5,62.8,30.10,NE,36,14.0,16.0,88,0.00,,---,0.00,VWS V14.01,2013-10-15 02:57:00,
2013-10-14 23:02:00,66.4,62.7,30.10,NNE,32,18.0,18.0,88,0.00,,---,0.00,VWS V14.01,2013-10-15 03:02:00,
2013-10-14 23:08:00,66.2,62.5,30.10,NNE,31,14.0,18.0,88,0.00,,---,0.00,VWS V14.01,2013-10-15 03:08:00,
2013-10-14 23:13:00,66.1,62.8,30.10,NE,37,15.0,18.0,89,0.00,,---,0.00,VWS V14.01,2013-10-15 03:13:00,
2013-10-14 23:18:00,66.0,62.7,30.10,NNE,32,16.0,18.0,89,0.00,,---,0.00,VWS V14.01,2013-10-15 03:18:00,
2013-10-14 23:23:00,65.9,62.2,30.10,NE,47,14.0,20.0,88,0.00,,---,0.00,VWS V14.01,2013-10-15 03:23:00,
2013-10-14 23:28:00,65.8,62.5,30.10,NE,36,14.0,19.0,89,0.00,,---,0.00,VWS V14.01,2013-10-15 03:28:00,
2013-10-14 23:33:00,65.8,62.5,30.10,NE,42,15.0,19.0,89,0.00,,---,0.00,VWS V14.01,2013-10-15 03:33:00,
2013-10-14 23:38:00,65.8,62.2,30.10,NE,43,15.0,19.0,88,0.00,,---,0.00,VWS V14.01,2013-10-15 03:38:00,
2013-10-14 23:43:00,65.7,62.4,30.10,NE,43,13.0,20.0,89,0.00,,---,0.00,VWS V14.01,2013-10-15 03:43:00,
2013-10-14 23:48:00,65.9,62.6,30.10,NE,44,11.0,20.0,89,0.00,,---,0.00,VWS V14.01,2013-10-15 03:48:00,
2013-10-14 23:53:00,65.8,62.2,30.10,NE,36,14.0,20.0,88,0.00,,---,0.00,VWS V14.01,2013-10-15 03:53:00,
2013-10-14 23:58:00,65.9,62.6,30.10,NE,36,11.0,14.0,89,0.00,,---,0.00,VWS V14.01,2013-10-15 03:58:00,